STARLINK-1889 (47172 NORAD) Tracking and Keplerian Element Data

This shows tracking and keplerian element data for the satellite.

Feedback or suggestion? Click here.




ElementValue
Catalog47172
NameSTARLINK-1889
Epoch Orbit891
Epoch Day16.18019807
Epoch Year2021
RAAN100.241
Inclination53.0375
Eccentricity0.0005561
Argument of Perigee266.2694
Mean Anonmoly93.767
Mean Motion15.32070069
Decay Rate-0.00267868
L11 47172U 20088BC 21016.18019807 -.00267868 00000-0 -88218-2 0 9991
L22 47172 53.0375 100.2410 0005561 266.2694 93.7670 15.32070069 8919

Live tracking and technical data element details for STARLINK-1889 (NORAD 47172). STARLINK-1889 can be tracked NOW for your location showing map with azimuth and elevation plus other details from your city location.

Track the satellite on the map from your city or location and see movement details for azimuth, elevation, latitude, longitude, range, height, and movement on the map or in text.







IsCatalogInMostPopularTable: catalog: 47172, numindb: 21
Update: records affected: 1



GetName: 47172 STARLINK-1889

Hit Count: updated at: Sun, 17 Jan 2021 10:15:50 GMT